Home   Weather   USA   New York   Past weeks
Flag for USA

Past Weather in New York, New York, USA — February 2014

Currently: 67 °F. Clear. (Weather station: New York City - Central Park, USA). See more current weather

February 2014 Weather in New York — Graph

°F

High & Low Weather Summary for February 2014

 TemperatureHumidityPressure
High55 °F (Feb 2, 1:51 pm)93% (Feb 21, 1:51 am)30.57 "Hg (Feb 21, 1:51 am)
Low10 °F (Feb 28, 3:51 am)23% (Feb 22, 3:51 pm)29.01 "Hg (Feb 13, 10:51 pm)
Average32 °F57%30.04 "Hg
* Reported Feb 1 12:51 am — Feb 28 11:51 pm, New York. Weather by CustomWeather, © 2021

Note: Actual official high and low records may vary slightly from our data, if they occured in-between our weather recording intervals... More about our weather records

New York Weather History for February 1, 2014

Scroll right to see more
 ConditionsComfort  
Time TempWeatherWind HumidityBarometerVisibility
12:51 am
Sat, Feb 1
37 °FClear.No wind41%30.23 "Hg10 mi
1:51 am37 °FClear.3 mph41%30.23 "Hg10 mi
2:51 am36 °FPassing clouds.No wind40%30.25 "Hg10 mi
3:51 am37 °FClear.No wind41%30.25 "Hg10 mi
4:51 am36 °FClear.No wind44%30.28 "Hg10 mi
5:51 am36 °FClear.No wind42%30.29 "Hg10 mi
6:51 am37 °FClear.No wind41%30.31 "Hg10 mi
7:51 am37 °FSunny.No wind42%30.32 "Hg10 mi
8:51 am39 °FSunny.3 mph43%30.32 "Hg10 mi
9:51 am41 °FSunny.6 mph41%30.31 "Hg9 mi
10:51 am43 °FSunny.3 mph37%30.31 "Hg10 mi
11:51 am44 °FSunny.5 mph37%30.29 "Hg10 mi
12:51 pm44 °FSunny.6 mph34%30.26 "Hg10 mi
1:51 pm43 °FSunny.N/A37%30.23 "Hg10 mi
2:51 pm43 °FSunny.7 mph38%30.22 "Hg10 mi
3:51 pm42 °FSunny.5 mph41%30.19 "Hg10 mi
4:51 pm41 °FSunny.N/A45%30.18 "Hg10 mi
5:51 pm40 °FClear.6 mph58%30.19 "Hg10 mi
6:51 pm39 °FClear.N/A67%30.17 "Hg9 mi
7:51 pm40 °FClear.8 mph68%30.14 "Hg9 mi
9:51 pm42 °FClear.6 mph73%30.08 "Hg8 mi
10:51 pm43 °FClear.5 mph76%30.06 "Hg7 mi
11:51 pm44 °FPassing clouds.5 mph79%30.02 "Hg6 mi
Weather by CustomWeather, © 2021

See weather overview